Vorticity
7 7 6 4 6 6 5 5 4 5 5 6 7 8 8 7 6 7 4 4 6 6 5 5 3 3 2 2 1 1 1 2 2
6 7 6 6 5 6 6 4 4 5 4 5 7 8 8 7 5 5 4 3 9 6 5 5 4 4 3 3 2 2 2 2 2
5 6 7 7 6 7 7 5 5 5 5 5 7 6 6 7 6 5 4 4 6 5 6 7 5 5 4 4 4 4 3 3 3
6 5 5 7 7 7 7 5 5 5 5 5 6 5 5 5 5 5 5 4 5 5 5 5 6 6 6 6 5 4 4 4 4
6 6 6 7 8 7 7 6 5 4 5 6 5 6 6 5 4 5 5 4 4 6 5 5 5 5 6 7 6 7 7 5 6
5 6 6 6 7 6 6 5 5 4 4 5 5 5 5 5 6 6 7 6 7 7 7 7 7 7 7 6 6 7 6 7 8
4 4 5 5 5 6 5 4 4 4 4 4 4 4 5 5 5 5 5 5 6 6 6 7 7 7 8 8 8 7 7 7 7
3 3 4 6 5 6 6 5 4 4 4 4 5 5 5 5 5 6 6 6 6 6 6 7 6 6 7 7 7 7 7 7 7
4 3 3 4 5 5 6 6 5 5 5 5 5 6 6 6 6 6 6 6 7 7 7 6 6 6 6 7 7 7 7 7 7
4 4 5 5 4 3 5 6 5 5 4 5 6 5 5 5 6 6 6 6 6 6 6 6 6 6 6 6 6 6 7 7 7
6 5 5 5 4 5 5 5 5 5 5 5 6 5 5 5 6 6 6 6 6 6 6 6 6 6 6 6 6 6 7 6 6
6 6 5 5 4 4 6 5 5 5 6 6 6 6 6 6 6 6 6 6 6 6 6 6 6 6 6 6 7 6 6 6 6
6 6 5 6 5 6 5 6 6 5 5 6 7 7 7 6 6 6 6 6 6 6 7 7 7 7 7 7 6 7 7 7 7
5 5 5 5 5 5 5 6 5 6 7 7 6 6 6 6 7 7 7 7 7 7 7 6 5 3 3 4 4 4 4 4 4
7 5 5 5 5 5 6 5 7 5 6 7 7 7 7 7 7 7 7 7 6 4 3 2 2 4 5 5 5 4 4 5 4
7 6 6 6 7 7 6 6 5 7 6 7 6 7 6 7 7 7 5 2 1 2 4 6 6 4 5 6 7 7 6 9 10
6 7 7 7 7 7 6 7 8 6 9 8 8 9 8 6 3 1 2 4 5 6 6 5 5 7 7 7 6 6 7 6 7
6 7 6 7 7 7 8 8 7 10 8 6 8 8 4 4 3 6 6 6 6 6 9 7 5 7 7 7 7 7 8 8 8
5 6 7 7 9 7 7 8 9 7 9 9 2 1 1 11 11 6 7 7 7 8 8 9 7 7 7 7 7 8 8 9 9
5 6 7 7 7 7 7 8 7 7 5 6 7 2 3 9 7 6 7 7 9 5 6 6 7 8 7 8 7 7 7 8 9
Height
3166 3168 3170 3171 3173 3175 3177 3178 3180 3181 3182 3183 3184 3184 3185 3186 3187 3187 3187 3187 3187 3188 3188 3187 3187 3186 3186 3185 3185 3183 3182 3181 3179
3167 3169 3171 3173 3174 3176 3179 3180 3181 3183 3183 3185 3186 3187 3187 3188 3189 3189 3189 3189 3189 3190 3190 3189 3189 3188 3188 3187 3187 3186 3184 3183 3182
3168 3170 3172 3174 3175 3177 3179 3181 3183 3184 3185 3187 3188 3188 3189 3190 3190 3190 3191 3191 3192 3192 3191 3191 3190 3190 3190 3189 3188 3187 3186 3185 3184
3169 3170 3172 3175 3176 3178 3180 3182 3184 3186 3187 3188 3189 3189 3190 3191 3192 3192 3193 3193 3193 3193 3193 3192 3192 3191 3191 3190 3190 3189 3188 3187 3185
3169 3170 3172 3176 3176 3178 3181 3183 3185 3186 3188 3190 3190 3191 3192 3193 3193 3194 3195 3195 3195 3195 3194 3194 3193 3193 3192 3192 3190 3190 3189 3188 3187
3169 3171 3173 3176 3176 3178 3181 3183 3185 3188 3189 3191 3192 3192 3193 3194 3195 3196 3196 3196 3196 3196 3195 3195 3194 3194 3193 3193 3191 3191 3190 3189 3188
3169 3170 3172 3175 3177 3179 3181 3183 3186 3188 3190 3192 3192 3193 3195 3196 3196 3197 3197 3197 3197 3197 3196 3196 3195 3195 3194 3194 3193 3192 3191 3190 3189
3167 3169 3171 3175 3177 3180 3182 3184 3186 3188 3190 3192 3193 3194 3196 3197 3197 3198 3198 3198 3198 3198 3197 3197 3196 3196 3195 3195 3194 3193 3192 3191 3190
3167 3169 3171 3174 3177 3181 3182 3184 3186 3188 3190 3192 3194 3195 3196 3198 3198 3199 3199 3199 3199 3199 3199 3198 3198 3197 3197 3196 3196 3194 3193 3192 3191
3166 3168 3171 3174 3175 3180 3183 3185 3186 3188 3190 3192 3194 3195 3196 3198 3199 3200 3200 3200 3200 3200 3199 3199 3198 3198 3197 3197 3196 3195 3194 3193 3192
3164 3167 3170 3173 3175 3178 3182 3184 3186 3188 3190 3191 3194 3195 3197 3198 3199 3200 3200 3200 3200 3200 3200 3200 3200 3199 3198 3198 3197 3196 3196 3194 3193
3162 3165 3169 3172 3174 3177 3180 3183 3185 3187 3190 3191 3193 3195 3196 3198 3199 3200 3200 3200 3201 3200 3200 3200 3200 3199 3199 3198 3198 3197 3196 3195 3194
3160 3163 3167 3170 3173 3176 3179 3182 3185 3186 3189 3191 3192 3194 3196 3197 3198 3199 3200 3200 3201 3200 3201 3201 3200 3200 3200 3199 3199 3198 3197 3196 3195
3157 3161 3164 3168 3171 3174 3177 3180 3183 3185 3188 3189 3191 3193 3194 3196 3197 3198 3199 3200 3200 3201 3201 3202 3201 3201 3201 3200 3199 3199 3197 3196 3195
3154 3158 3161 3165 3168 3172 3175 3178 3181 3184 3186 3188 3190 3191 3193 3195 3196 3198 3199 3200 3200 3201 3202 3202 3202 3201 3201 3200 3199 3199 3197 3196 3195
3150 3155 3159 3163 3166 3169 3172 3175 3178 3182 3184 3186 3188 3190 3192 3194 3196 3197 3198 3199 3200 3201 3201 3201 3201 3201 3200 3200 3199 3198 3197 3196 3194
3146 3151 3155 3160 3164 3166 3169 3173 3176 3179 3182 3185 3188 3190 3193 3193 3195 3196 3198 3199 3200 3201 3201 3201 3201 3201 3200 3200 3199 3198 3196 3196 3194
3144 3148 3152 3157 3160 3164 3168 3171 3174 3178 3180 3183 3188 3189 3191 3193 3194 3195 3196 3198 3199 3199 3201 3200 3200 3200 3200 3199 3198 3197 3196 3196 3193
3140 3144 3148 3153 3157 3160 3164 3168 3172 3176 3180 3182 3185 3188 3191 3192 3194 3195 3195 3196 3197 3198 3199 3199 3199 3199 3199 3198 3197 3196 3197 3196 3194
3134 3139 3144 3148 3153 3157 3161 3165 3169 3173 3177 3181 3184 3186 3188 3190 3192 3193 3194 3195 3196 3197 3198 3198 3198 3198 3197 3197 3197 3195 3196 3194 3194